Fosston, MN

5:56 PM CDT on May 23, 2017 (GMT -0500)
Fosston Municipal

Weather History for KFSE - January, 2013

Change the Weather History Date:

Tuesday, January 22, 2013

  Actual Average Record
Temperature  
Mean Temperature -14 °F -  
Max Temperature -2 °F 21 °F 39 °F (1992)
Min Temperature -25 °F 0 °F -32 °F (1963)
Degree Days  
Heating Degree Days 78    
Moisture  
Dew Point -19 °F    
Average Humidity 76    
Maximum Humidity 92    
Minimum Humidity 60    
Precipitation  
Precipitation 0.00 in - - ()
Sea Level Pressure  
Sea Level Pressure 30.21 in    
Wind  
Wind Speed 4 mph (SSW)    
Max Wind Speed 13 mph    
Max Gust Speed -    
Visibility 10 miles    
Events      
Averages and records for this station are not official NWS values.
T = Trace of Precipitation, MM = Missing Value Source: NWS Daily Summary

Daily Weather History Graph

Daily Weather History Graph

Search for Another Location

Airport or City:

Trip Planner

Search our weather history database for the weather conditions in past years. The results will help you decide how hot, cold, wet, or windy it might be!

Date:

Astronomy

Jan. 22, 2013 Rise Set
Actual Time 8:00 AM CST 5:09 PM CST
Civil Twilight 7:26 AM CST 5:43 PM CST
Nautical Twilight 6:48 AM CST 6:21 PM CST
Astronomical Twilight 6:12 AM CST 6:57 PM CST
Moon 1:29 PM CST (1/22) 4:25 AM CST (1/22)
Length of Visible Light 10h 16m
Length of Day
9h 08m
Waxing Gibbous, 83% of the Moon is Illuminated
Jan 22
Waxing Gibbous
Jan 26
Full
Feb 3
Last Quarter
Feb 10
New
Feb 17
First Quarter

Hourly Weather History & Observations

Time (CST) Temp. Windchill Dew Point Humidity Pressure Visibility Wind Dir Wind Speed Gust Speed Precip Events Conditions
12:15 AM -23.8 °F - -29.2 °F 76% 30.24 in 10.0 mi Calm Calm - N/A   Clear
12:21 AM -23.8 °F - -29.2 °F 76% 30.24 in 10.0 mi Calm Calm - N/A   Clear
12:50 AM -23.8 °F -37.7 °F -29.2 °F 76% 30.24 in 10.0 mi SSW 4.6 mph - N/A   Clear
12:55 AM -23.8 °F - -29.2 °F 76% 30.24 in 10.0 mi Calm Calm - N/A   Clear
1:15 AM -23.8 °F - -29.2 °F 76% 30.24 in 10.0 mi Calm Calm - N/A   Clear
1:35 AM -23.8 °F -35.0 °F -31.0 °F 69% 30.24 in 10.0 mi SSW 3.5 mph - N/A   Clear
1:55 AM -25.6 °F - -32.8 °F 69% 30.24 in 10.0 mi Calm Calm - N/A   Clear
2:15 AM -25.6 °F - -31.0 °F 76% 30.25 in 10.0 mi Calm Calm - N/A   Clear
2:35 AM -25.6 °F - -31.0 °F 76% 30.25 in 10.0 mi Calm Calm - N/A   Clear
2:56 AM -23.8 °F -37.7 °F -29.2 °F 76% 30.25 in 10.0 mi South 4.6 mph - N/A   Clear
3:15 AM -25.6 °F - -31.0 °F 76% 30.25 in 10.0 mi Calm Calm - N/A   Clear
3:35 AM -25.6 °F - -32.8 °F 69% 30.26 in 10.0 mi Calm Calm - N/A   Clear
3:55 AM -25.6 °F - -32.8 °F 69% 30.26 in 10.0 mi Calm Calm - N/A   Clear
4:15 AM -23.8 °F - -29.2 °F 76% 30.26 in 10.0 mi Calm Calm - N/A   Clear
4:35 AM -23.8 °F - -31.0 °F 69% 30.26 in 10.0 mi Calm Calm - N/A   Clear
4:55 AM -23.8 °F - -31.0 °F 69% 30.26 in 10.0 mi Calm Calm - N/A   Clear
5:15 AM -25.6 °F - -31.0 °F 76% 30.27 in 10.0 mi Calm Calm - N/A   Clear
5:35 AM -25.6 °F -39.8 °F -31.0 °F 76% 30.26 in 10.0 mi South 4.6 mph - N/A   Clear
5:55 AM -23.8 °F -39.8 °F -29.2 °F 76% 30.25 in 10.0 mi South 5.8 mph - N/A   Clear
6:15 AM -23.8 °F -39.8 °F -29.2 °F 76% 30.24 in 10.0 mi SSE 5.8 mph - N/A   Clear
6:35 AM -23.8 °F -39.8 °F -29.2 °F 76% 30.24 in 10.0 mi South 5.8 mph - N/A   Clear
6:56 AM -23.8 °F -39.8 °F -29.2 °F 76% 30.24 in 10.0 mi South 5.8 mph - N/A   Clear
7:15 AM -23.8 °F -37.7 °F -29.2 °F 76% 30.24 in 10.0 mi South 4.6 mph - N/A   Clear
7:35 AM -25.6 °F -41.9 °F -31.0 °F 76% 30.24 in 10.0 mi South 5.8 mph - N/A   Clear
7:55 AM -25.6 °F -39.8 °F -31.0 °F 76% 30.25 in 10.0 mi South 4.6 mph - N/A   Clear
8:15 AM -23.8 °F -39.8 °F -29.2 °F 76% 30.25 in 10.0 mi South 5.8 mph - N/A   Clear
8:35 AM -23.8 °F -39.8 °F -27.4 °F 83% 30.25 in 10.0 mi South 5.8 mph - N/A   Clear
8:55 AM -20.2 °F -33.5 °F -25.6 °F 76% 30.25 in 10.0 mi South 4.6 mph - N/A   Clear
9:15 AM -18.4 °F -31.4 °F -25.6 °F 70% 30.25 in 10.0 mi South 4.6 mph - N/A   Clear
9:35 AM -16.6 °F -31.3 °F -22.0 °F 76% 30.24 in 10.0 mi South 5.8 mph - N/A   Clear
9:55 AM -14.8 °F -29.1 °F -20.2 °F 77% 30.25 in 10.0 mi South 5.8 mph - N/A   Clear
10:15 AM -13.0 °F -30.0 °F -18.4 °F 77% 30.25 in 10.0 mi South 8.1 mph - N/A   Clear
10:35 AM -11.2 °F -30.1 °F -18.4 °F 70% 30.26 in 10.0 mi SSW 10.4 mph - N/A   Clear
10:55 AM -9.4 °F -28.9 °F -16.6 °F 71% 30.26 in 10.0 mi SSW 11.5 mph - N/A   Clear
11:16 AM -9.4 °F -28.9 °F -16.6 °F 71% 30.26 in 10.0 mi SSW 11.5 mph - N/A   Clear
11:35 AM -9.4 °F -27.9 °F -16.6 °F 71% 30.25 in 10.0 mi SSW 10.4 mph - N/A   Clear
11:55 AM -7.6 °F -26.6 °F -16.6 °F 65% 30.24 in 10.0 mi SSW 11.5 mph - N/A   Clear
12:15 PM -7.6 °F -27.5 °F -16.6 °F 65% 30.24 in 10.0 mi SW 12.7 mph - N/A   Clear
12:35 PM -7.6 °F -25.7 °F -16.6 °F 65% 30.24 in 10.0 mi SSW 10.4 mph - N/A   Clear
12:55 PM -5.8 °F -23.4 °F -13.0 °F 71% 30.23 in 10.0 mi SSW 10.4 mph - N/A   Clear
1:15 PM -2.2 °F -18.9 °F -11.2 °F 66% 30.22 in 10.0 mi SW 10.4 mph - N/A   Clear
1:35 PM -4.0 °F -21.2 °F -14.8 °F 60% 30.22 in 10.0 mi SW 10.4 mph - N/A   Clear
1:55 PM -5.8 °F -23.4 °F -14.8 °F 65% 30.21 in 10.0 mi SW 10.4 mph - N/A   Clear
2:01 PM -5.8 °F -23.4 °F -14.8 °F 65% 30.21 in 10.0 mi SSW 10.4 mph - N/A   Clear
2:21 PM -5.8 °F -23.4 °F -13.0 °F 71% 30.21 in 10.0 mi SSW 10.4 mph - N/A   Clear
2:41 PM -5.8 °F -21.2 °F -11.2 °F 77% 30.21 in 10.0 mi SSW 8.1 mph - N/A   Clear
3:21 PM -5.8 °F -19.9 °F -13.0 °F 71% 30.21 in 10.0 mi SSW 6.9 mph - N/A   Clear
3:41 PM -5.8 °F -22.4 °F -11.2 °F 77% 30.20 in 10.0 mi South 9.2 mph - N/A   Clear
4:06 PM -5.8 °F -22.4 °F -11.2 °F 77% 30.20 in 10.0 mi SSW 9.2 mph - N/A   Clear
4:09 PM -5.8 °F -23.4 °F -11.2 °F 77% 30.20 in 10.0 mi SSW 10.4 mph - N/A   Clear
4:21 PM -5.8 °F -22.4 °F -9.4 °F 84% 30.19 in 10.0 mi SSW 9.2 mph - N/A   Clear
4:47 PM -5.8 °F -21.2 °F -9.4 °F 84% 30.19 in 10.0 mi SW 8.1 mph - N/A   Clear
4:55 PM -5.8 °F -22.4 °F -11.2 °F 77% 30.18 in 10.0 mi SW 9.2 mph - N/A   Clear
5:15 PM -5.8 °F -23.4 °F -9.4 °F 84% 30.17 in 10.0 mi SW 10.4 mph - N/A   Clear
5:33 PM -5.8 °F -21.2 °F -11.2 °F 77% 30.17 in 10.0 mi SW 8.1 mph - N/A   Clear
5:55 PM -5.8 °F -18.4 °F -11.2 °F 77% 30.17 in 10.0 mi SSW 5.8 mph - N/A   Clear
6:15 PM -7.6 °F -20.6 °F -11.2 °F 84% 30.16 in 10.0 mi SSW 5.8 mph - N/A   Clear
6:35 PM -7.6 °F -20.6 °F -13.0 °F 77% 30.16 in 10.0 mi South 5.8 mph - N/A   Clear
6:55 PM -9.4 °F -24.3 °F -14.8 °F 77% 30.15 in 10.0 mi South 6.9 mph - N/A   Clear
7:16 PM -9.4 °F -22.7 °F -14.8 °F 77% 30.15 in 10.0 mi South 5.8 mph - N/A   Mostly Cloudy
7:35 PM -9.4 °F -24.3 °F -13.0 °F 84% 30.15 in 10.0 mi South 6.9 mph - N/A   Overcast
7:56 PM -7.6 °F -24.6 °F -11.2 °F 84% 30.14 in 10.0 mi SSW 9.2 mph - N/A   Overcast
8:15 PM -5.8 °F -21.2 °F -11.2 °F 77% 30.13 in 10.0 mi South 8.1 mph - N/A   Overcast
8:36 PM -5.8 °F -22.4 °F -11.2 °F 77% 30.13 in 10.0 mi South 9.2 mph - N/A   Overcast
8:55 PM -5.8 °F -22.4 °F -9.4 °F 84% 30.13 in 10.0 mi SSW 9.2 mph - N/A   Scattered Clouds
9:15 PM -5.8 °F -22.4 °F -9.4 °F 84% 30.13 in 10.0 mi SSW 9.2 mph - N/A   Clear
9:35 PM -5.8 °F -18.4 °F -11.2 °F 77% 30.13 in 10.0 mi SSW 5.8 mph - N/A   Clear
9:55 PM -7.6 °F - -11.2 °F 84% 30.13 in 10.0 mi Calm Calm - N/A   Clear
10:16 PM -7.6 °F -20.6 °F -9.4 °F 92% 30.13 in 10.0 mi South 5.8 mph - N/A   Clear
10:36 PM -7.6 °F -22.1 °F -9.4 °F 92% 30.13 in 10.0 mi SSW 6.9 mph - N/A   Clear
10:55 PM -7.6 °F -22.1 °F -9.4 °F 92% 30.12 in 10.0 mi South 6.9 mph - N/A   Clear
11:15 PM -5.8 °F -19.9 °F -9.4 °F 84% 30.13 in 10.0 mi SSW 6.9 mph - N/A   Mostly Cloudy
11:35 PM -4.0 °F -20.2 °F -7.6 °F 85% 30.12 in 10.0 mi South 9.2 mph - N/A   Overcast
11:55 PM -2.2 °F -18.0 °F -7.6 °F 78% 30.12 in 10.0 mi SSW 9.2 mph - N/A   Overcast